Flag for Russia Weather past 2 weeks in Nizhny Novgorod, Russia

Now
64 °F

Scattered clouds.


Feels Like: 64 °F
Forecast: 47 / 59 °F
Wind: 6 mph from South

Location: Nizhny Novgorod/Strigino

Current Time: Aug 29, 2015 at 9:22:33 AM

Latest Report: Aug 29, 2015 at 8:30 AM


Visibility: N/A

Pressure: 29.83 "Hg

Humidity: 73%

Dew point: 55 °F

Location of Nizhny NovgorodLocation

Historic Weather in Nizhny Novgorod — Graph

°F

Nizhny Novgorod temperature yesterday

Maximum temperature yesterday: 73 °F (at 2:00 PM)
Minimum temperature yesterday: 54 °F (at 12:00 AM)
Average temperature yesterday: 64 °F

Past Weeks' High & Low Weather Summary

 TemperatureHumidityPressure
High77 °F (Aug 22, 3:00 PM)100% (Aug 16, 9:00 PM)30.30 "Hg (Aug 16, 9:00 PM)
Low34 °F (Aug 24, 5:00 AM)42% (Aug 22, 3:00 PM)29.77 "Hg (Aug 15, 10:00 PM)
Average58 °F77%30.04 "Hg
* Reported Aug 14 8:00 AM — Aug 29 8:30 AM, Nizhny Novgorod, Weather by CustomWeather, © 2015

Note: Actual official high and low records may vary slightly from our data, if they occured in-between our weather recording intervals... More about our weather records

Advertising

Nizhny Novgorod weather history for previous 24 hours

 ConditionsComfort  
Time TempWeatherWind HumidityBarometerVisibility
8:30 AM
Sat, Aug 29
64 °FScattered clouds.6 mph73%29.83 "HgN/A
8:00 AM63 °FScattered clouds.6 mph77%29.86 "HgN/A
7:30 AM63 °FScattered clouds.6 mph77%29.89 "HgN/A
7:00 AM59 °FScattered clouds.3 mph88%29.89 "HgN/A
6:30 AM59 °FScattered clouds.3 mph88%29.89 "HgN/A
6:00 AM57 °FScattered clouds.3 mph88%29.89 "HgN/A
5:30 AM57 °FPassing clouds.1 mph94%29.92 "HgN/A
5:00 AM57 °FPassing clouds.3 mph88%29.92 "HgN/A
4:30 AM57 °FPassing clouds.1 mph94%29.92 "HgN/A
4:00 AM57 °FPassing clouds.1 mph94%29.92 "Hg6 mi
3:30 AM57 °FPassing clouds.1 mph94%29.95 "HgN/A
3:00 AM57 °FPassing clouds.1 mph94%29.95 "Hg6 mi
2:30 AM57 °FPassing clouds.1 mph94%29.95 "Hg6 mi
2:00 AM57 °FPassing clouds.No wind94%29.95 "Hg6 mi
1:30 AM57 °FLight rain. Passing clouds.1 mph94%29.95 "HgN/A
1:00 AM57 °FLight rain. Passing clouds.1 mph94%29.98 "HgN/A
12:30 AM59 °FPassing clouds.1 mph88%29.98 "HgN/A
12:00 AM57 °FPassing clouds.1 mph94%29.98 "HgN/A
11:30 PM
Fri, Aug 28
59 °FPassing clouds.1 mph88%29.98 "HgN/A
11:00 PM59 °FPassing clouds.1 mph88%29.98 "HgN/A
10:30 PM63 °FPassing clouds.3 mph73%29.98 "HgN/A
10:00 PM63 °FPassing clouds.1 mph73%29.98 "HgN/A
9:30 PM63 °FPassing clouds.1 mph73%29.98 "HgN/A
9:00 PM63 °FPassing clouds.1 mph73%30.01 "HgN/A
8:30 PM64 °FPassing clouds.1 mph68%30.01 "HgN/A
8:00 PM64 °FScattered clouds.3 mph68%30.01 "HgN/A
7:30 PM64 °FScattered clouds.1 mph68%29.98 "HgN/A
7:00 PM66 °FScattered clouds.3 mph64%29.98 "HgN/A
6:30 PM68 °FScattered clouds.3 mph60%29.98 "HgN/A
6:00 PM70 °FScattered clouds.3 mph57%29.98 "HgN/A
5:30 PM70 °FScattered clouds.3 mph53%29.98 "HgN/A
5:00 PM72 °FScattered clouds.3 mph50%29.98 "HgN/A
4:30 PM73 °FScattered clouds.6 mph50%29.98 "HgN/A
4:00 PM73 °FScattered clouds.6 mph50%29.98 "HgN/A
3:30 PM72 °FScattered clouds.3 mph57%29.98 "HgN/A
3:00 PM72 °FScattered clouds.8 mph57%29.98 "HgN/A
2:30 PM73 °FScattered clouds.6 mph57%29.98 "HgN/A
2:00 PM73 °FScattered clouds.8 mph53%29.98 "HgN/A
1:30 PM72 °FScattered clouds.3 mph61%29.98 "HgN/A
1:00 PM70 °FScattered clouds.6 mph60%29.98 "HgN/A
12:30 PM72 °FPartly sunny.3 mph61%29.98 "HgN/A
12:00 PM72 °FPartly sunny.6 mph61%29.98 "HgN/A
11:30 AM70 °FPartly sunny.6 mph69%29.98 "HgN/A
11:00 AM70 °FPartly sunny.6 mph64%29.98 "HgN/A
10:30 AM66 °FPartly sunny.6 mph78%29.98 "Hg6 mi
10:00 AM64 °FPartly sunny.6 mph83%29.98 "Hg6 mi
9:30 AM64 °FPartly sunny.3 mph88%29.98 "Hg4 mi
9:00 AM64 °FFog.3 mph88%29.98 "Hg3 mi
Weather by CustomWeather, © 2015

See weather overviewHow to use our weather pages